GW3791 Weather Reports


time (UTC)temp
F
wind
direction
speed
knots
gust
knots
rain 1hr
in
rain 24hr
in
rain mn
in
humidity
%
barometer
mb
20260505224224 76 336 0.9 4.3 0.00 0.02 0.02 37 1008.7
20260505223722 76 338 1.7 4.3 0.00 0.02 0.02 38 1008.5
20260505223218 76 7 3.5 6.1 0.00 0.02 0.02 37 1008.6
20260505222714 76 324 4.3 7.0 0.00 0.02 0.02 37 1008.4
20260505222210 77 275 3.5 7.0 0.00 0.02 0.02 36 1008.4
20260505221707 77 315 2.6 11.3 0.00 0.02 0.02 36 1008.4
20260505221204 77 246 1.7 15.6 0.00 0.02 0.02 35 1008.3
20260505220701 78 340 4.3 7.0 0.00 0.02 0.02 35 1008.3
20260505220159 77 255 1.7 13.9 0.00 0.02 0.02 37 1008.5
20260505215656 77 273 4.3 6.1 0.00 0.02 0.02 35 1008.4
20260505215154 78 235 3.5 7.0 0.00 0.02 0.02 35 1008.2
20260505214651 78 169 2.6 7.8 0.00 0.02 0.02 34 1008.3
20260505214148 78 277 4.3 9.6 0.00 0.02 0.02 34 1008.3
20260505213646 78 8 1.7 7.8 0.00 0.02 0.02 34 1008.3
20260505213143 78 88 2.6 8.7 0.00 0.02 0.02 34 1008.4
20260505212638 79 149 0.0 6.1 0.00 0.02 0.02 34 1008.4
20260505212136 79 307 4.3 11.3 0.00 0.02 0.02 34 1008.3
20260505211633 79 294 9.6 12.2 0.00 0.02 0.02 33 1008.1
20260505211130 79 324 2.6 11.3 0.00 0.02 0.02 34 1008.0
20260505210627 79 22 1.7 7.8 0.00 0.02 0.02 33 1008.1
20260505210124 78 296 5.2 9.6 0.00 0.02 0.02 34 1008.0
20260505205621 78 319 3.5 8.7 0.00 0.02 0.02 33 1007.8
20260505205119 78 214 1.7 8.7 0.00 0.02 0.02 33 1007.8
20260505204616 78 93 4.3 13.0 0.00 0.02 0.02 31 1007.9
20260505204114 80 321 2.6 7.8 0.00 0.02 0.02 31 1008.0
20260505203610 81 321 5.2 7.0 0.00 0.02 0.02 30 1007.8
20260505203107 81 43 5.2 7.8 0.00 0.02 0.02 30 1008.1
20260505202603 81 330 3.5 11.3 0.00 0.02 0.02 31 1007.9
20260505202059 81 192 2.6 13.0 0.00 0.02 0.02 30 1008.0
20260505201556 81 330 3.5 7.8 0.00 0.02 0.02 30 1007.9
20260505201054 81 306 9.6 13.9 0.00 0.02 0.02 30 1008.1
20260505200551 81 331 4.3 10.4 0.00 0.02 0.02 31 1008.0
20260505200048 81 21 1.7 10.4 0.00 0.02 0.02 32 1008.2
20260505195544 81 253 7.8 17.4 0.00 0.02 0.02 31 1007.9
20260505195042 81 4 3.5 15.6 0.00 0.02 0.02 30 1008.2
20260505194539 82 301 1.7 6.1 0.00 0.02 0.02 30 1008.3
20260505194034 81 16 5.2 12.2 0.00 0.02 0.02 30 1008.0
20260505193531 81 240 5.2 11.3 0.00 0.02 0.02 30 1008.1
20260505193029 81 271 0.9 7.0 0.00 0.02 0.02 33 1008.1
20260505192527 80 176 3.5 8.7 0.00 0.02 0.02 33 1008.3
20260505192024 82 295 3.5 9.6 0.00 0.02 0.02 32 1008.1
20260505191522 82 273 3.5 10.4 0.00 0.02 0.02 31 1008.2
20260505191020 82 12 9.6 9.6 0.00 0.02 0.02 31 1008.5
20260505190515 82 297 7.0 7.8 0.00 0.02 0.02 33 1008.3
20260505190011 82 314 4.3 10.4 0.00 0.02 0.02 35 1008.5
20260505185508 81 325 7.0 10.4 0.00 0.02 0.02 34 1008.5
20260505185003 81 264 4.3 11.3 0.00 0.02 0.02 35 1008.5
20260505184455 81 223 0.9 7.8 0.00 0.02 0.02 35 1008.7
20260505183952 80 298 0.9 13.9 0.00 0.02 0.02 36 1008.8
20260505183449 81 248 4.3 17.4 0.00 0.02 0.02 35 1008.9
20260505182945 78 148 2.6 7.8 0.00 0.02 0.02 37 1008.8
20260505182442 80 239 4.3 8.7 0.00 0.02 0.02 38 1009.0
20260505181938 81 225 2.6 7.8 0.00 0.02 0.02 35 1008.9
20260505181436 82 278 5.2 6.1 0.00 0.02 0.02 36 1009.3
20260505180933 81 287 6.1 7.0 0.00 0.02 0.02 36 1009.3
20260505180429 81 298 2.6 6.1 0.00 0.02 0.02 37 1009.4
20260505175926 80 318 4.3 7.8 0.00 0.02 0.02 36 1009.3
20260505175422 79 131 2.6 13.0 0.00 0.02 0.02 36 1009.2
20260505174918 81 244 3.5 12.2 0.00 0.02 0.02 36 1009.4
20260505174416 81 265 6.1 9.6 0.00 0.02 0.02 35 1009.2
20260505173912 79 340 6.1 12.2 0.00 0.02 0.02 36 1009.5
20260505173409 79 299 4.3 9.6 0.00 0.02 0.02 38 1009.3
20260505172906 79 274 2.6 6.1 0.00 0.02 0.02 38 1009.5
20260505172404 79 292 2.6 7.0 0.00 0.02 0.02 41 1009.6
20260505171903 78 104 2.6 7.0 0.00 0.02 0.02 42 1009.5
20260505171400 79 289 1.7 4.3 0.00 0.02 0.02 42 1009.7
20260505170856 78 128 2.6 8.7 0.00 0.02 0.02 44 1009.5
20260505170354 78 271 2.6 11.3 0.00 0.02 0.02 42 1009.9
20260505165849 80 56 3.5 9.6 0.00 0.02 0.02 42 1009.7
20260505165344 79 226 4.3 10.4 0.00 0.02 0.02 41 1010.0
20260505164840 78 73 1.7 8.7 0.00 0.02 0.02 43 1010.2
20260505164337 79 308 3.5 6.1 0.00 0.02 0.02 42 1010.1
20260505163836 78 284 4.3 6.1 0.00 0.02 0.02 43 1010.1
20260505163334 78 232 1.7 7.8 0.00 0.02 0.02 44 1009.9
20260505162832 79 292 0.9 4.3 0.00 0.02 0.02 47 1010.0
20260505162328 78 358 1.7 4.3 0.00 0.02 0.02 46 1010.3
20260505161825 77 353 3.5 5.2 0.00 0.02 0.02 45 1010.2
20260505161322 77 136 0.9 6.1 0.00 0.02 0.02 45 1010.2
20260505160820 77 297 3.5 4.3 0.00 0.02 0.02 48 1010.4
20260505160318 77 323 2.6 6.1 0.00 0.02 0.02 46 1010.3
20260505153256 74 89 1.7 6.1 0.00 0.02 0.02 49 1011.0
20260505152753 73 180 1.7 6.1 0.00 0.02 0.02 50 1011.0
20260505152249 73 253 2.6 5.2 0.00 0.02 0.02 51 1011.0
20260505151744 74 322 7.0 9.6 0.00 0.02 0.02 49 1011.0
20260505151242 73 325 0.0 11.3 0.00 0.02 0.02 53 1011.0
20260505150738 73 318 3.5 4.3 0.00 0.02 0.02 52 1011.0
20260505150235 72 311 2.6 2.6 0.00 0.02 0.02 53 1011.1
20260505140200 69 279 2.6 7.0 0.00 0.02 0.02 58 1011.4
20260505130124 65 74 2.6 3.5 0.00 0.02 0.02 66 1011.6
20260505124613 63 208 2.6 6.1 0.00 0.02 0.02 68 1011.3
20260505124110 63 199 1.7 5.2 0.00 0.02 0.02 69 1010.9
20260505123606 63 259 0.0 4.3 0.00 0.02 0.02 71 1011.2
20260505123103 62 225 2.6 7.0 0.00 0.02 0.02 69 1011.0
20260505122559 62 4 2.6 5.2 0.00 0.02 0.02 72 1010.9
20260505122056 62 129 0.0 3.5 0.00 0.02 0.02 72 1010.9
20260505121553 62 198 2.6 4.3 0.00 0.02 0.02 73 1010.6
20260505121050 61 179 0.0 1.7 0.00 0.02 0.02 75 1010.7
20260505120546 61 301 2.6 3.5 0.00 0.02 0.02 78 1010.9
20260505120042 60 122 2.6 3.5 0.00 0.02 0.02 80 1010.9
20260505115536 59 137 0.9 3.5 0.00 0.02 0.02 83 1010.7
20260505115034 59 169 0.0 3.5 0.00 0.02 0.02 84 1010.9
20260505114531 58 51 2.6 4.3 0.00 0.02 0.02 85 1010.9
20260505114027 58 299 0.0 3.5 0.00 0.02 0.02 86 1011.2
20260505113524 57 94 2.6 3.5 0.00 0.02 0.02 91 1010.9
20260505113020 56 13 0.0 1.7 0.00 0.02 0.02 92 1011.0
20260505112516 56 336 0.0 2.6 0.00 0.02 0.02 93 1011.3
20260505112014 56 89 0.0 1.7 0.00 0.02 0.02 94 1011.2
20260505111508 55 108 1.7 5.2 0.00 0.02 0.02 95 1010.9
20260505111005 55 76 2.6 4.3 0.02 0.02 0.02 95 1010.7
20260505110502 54 120 1.7 4.3 0.02 0.02 0.02 95 1010.5
20260505101933 55 93 3.5 4.3 0.02 0.01 0.01 89 1010.5
20260505101427 55 105 2.6 3.5 0.05 0.01 0.01 85 1010.9
20260505100923 56 167 1.7 2.6 0.02 0.00 0.00 83 1010.9
20260505100420 57 327 2.6 3.5 0.00 0.00 0.00 78 1011.2
20260505095915 57 116 0.0 5.2 0.00 0.00 0.00 75 1010.9
20260505095413 57 49 0.0 3.5 0.00 0.00 0.00 74 1010.9
20260505094909 57 253 0.9 2.6 0.00 0.00 0.00 73 1010.6
20260505094406 56 214 0.9 2.6 0.00 0.00 0.00 74 1010.7
20260505093902 55 322 1.7 2.6 0.00 0.00 0.00 75 1010.6
20260505093359 54 55 0.0 1.7 0.00 0.00 0.00 76 1010.6
20260505092856 54 61 0.9 2.6 0.00 0.00 0.00 75 1010.6
20260505092354 55 89 0.9 1.7 0.00 0.00 0.00 74 1010.5
20260505091851 55 89 0.0 2.6 0.00 0.00 0.00 74 1010.6
20260505091349 55 44 0.0 1.7 0.00 0.00 0.00 73 1010.6
20260505090847 55 126 0.0 0.9 0.00 0.00 0.00 72 1010.3
20260505090345 55 40 1.7 2.6 0.00 0.00 0.00 72 1010.5
20260505085842 56 140 2.6 3.5 0.00 0.00 0.00 71 1010.4
20260505085340 55 44 2.6 5.2 0.00 0.00 0.00 71 1010.3
20260505084837 55 125 0.0 2.6 0.00 0.00 0.00 72 1010.2
20260505084336 55 111 1.7 2.6 0.00 0.00 0.00 73 1010.2
20260505083833 54 157 0.0 3.5 0.00 0.00 0.00 73 1010.1
20260505083330 55 111 2.6 2.6 0.00 0.00 0.00 72 1010.0
20260505082826 55 101 1.7 2.6 0.00 0.00 0.00 71 1010.1
20260505082323 55 101 1.7 2.6 0.00 0.00 0.00 70 1010.1
20260505081819 55 117 3.5 4.3 0.00 0.00 0.00 70 1010.1
20260505081316 56 178 1.7 3.5 0.00 0.00 0.00 69 1009.9
20260505080813 56 124 1.7 2.6 0.00 0.00 0.00 69 1009.9
20260505080309 56 154 0.0 5.2 0.00 0.00 0.00 69 1009.9
20260505075804 56 56 1.7 1.7 0.00 0.00 0.00 69 1010.3
20260505075304 56 118 0.9 3.5 0.00 0.00 0.00 68 1010.2
20260505074759 57 60 0.0 2.6 0.00 0.00 0.00 67 1010.0
20260505074256 57 293 0.0 2.6 0.00 0.00 0.00 66 1010.3
20260505073753 57 55 0.0 3.5 0.00 0.00 0.00 66 1010.4
20260505073251 57 296 0.0 2.6 0.00 0.00 0.00 66 1010.2
20260505072748 57 65 2.6 4.3 0.00 0.00 0.00 66 1010.2
20260505072244 57 186 0.0 2.6 0.00 0.00 0.00 66 1010.1
20260505071739 57 88 0.9 3.5 0.00 0.00 0.00 65 1010.1
20260505071236 57 82 2.6 3.5 0.00 0.00 0.00 66 1009.9
20260505070734 57 119 0.9 2.6 0.00 0.00 0.00 65 1010.3
20260505070230 57 154 0.0 4.3 0.00 0.00 0.00 65 1010.2
20260505065726 57 82 4.3 7.8 0.00 0.00 0.00 64 1010.2
20260505065223 57 159 1.7 6.1 0.00 0.00 0.00 63 1010.0
20260505064720 57 39 2.6 4.3 0.00 0.00 0.00 64 1010.0
20260505064218 57 352 0.9 5.2 0.00 0.00 0.00 63 1010.2
20260505063715 57 127 0.0 2.6 0.00 0.00 0.00 63 1010.3
20260505063211 58 329 1.7 3.5 0.00 0.00 0.00 62 1010.2
20260505062707 58 324 0.9 5.2 0.00 0.00 0.00 62 1010.1
20260505062206 58 323 0.9 4.3 0.00 0.00 0.00 61 1010.1
20260505061702 58 165 0.9 1.7 0.00 0.00 0.00 62 1010.2
20260505061200 58 67 2.6 5.2 0.00 0.00 0.00 60 1010.1
20260505060657 58 108 0.9 3.5 0.00 0.00 0.00 62 1010.1
20260505060154 58 350 2.6 3.5 0.00 0.00 0.00 61 1010.1
20260505055649 58 59 1.7 1.7 0.00 0.00 0.00 61 1010.5
20260505055146 58 313 0.0 4.3 0.00 0.00 0.00 61 1010.3
20260505054643 58 64 2.6 2.6 0.00 0.00 0.00 60 1010.5
20260505054141 58 127 1.7 3.5 0.00 0.00 0.00 60 1010.2
20260505053639 59 323 1.7 5.2 0.00 0.00 0.00 57 1010.4
20260505053135 59 12 2.6 3.5 0.00 0.00 0.00 56 1010.5
20260505052632 59 346 2.6 5.2 0.00 0.00 0.00 57 1010.2
20260505052130 59 279 0.9 3.5 0.00 0.00 0.00 56 1010.3
20260505051626 59 0 1.7 3.5 0.00 0.00 0.00 56 1010.1
20260505051125 58 340 1.7 3.5 0.00 0.00 0.00 57 1010.3
20260505050622 57 262 1.7 3.5 0.00 0.00 0.00 59 1010.3
20260505050120 58 26 1.7 3.5 0.00 0.00 0.00 59 1010.3
20260505041550 59 267 1.7 5.2 0.00 0.00 0.00 56 1010.2
20260505041047 59 47 1.7 6.1 0.00 0.00 0.00 55 1010.1
20260505040544 59 101 3.5 4.3 0.00 0.00 0.00 55 1010.2
20260505040041 59 14 0.9 4.3 0.00 0.00 0.00 55 1010.2
20260505035537 58 96 2.6 3.5 0.00 0.00 0.00 57 1010.1
20260505035034 58 116 2.6 3.5 0.00 0.00 0.00 58 1010.3
20260505034530 59 92 0.9 3.5 0.00 0.00 0.00 56 1010.2
20260505034027 59 95 2.6 3.5 0.00 0.00 0.00 56 1010.2
20260505033525 59 19 2.6 4.3 0.00 0.00 0.00 56 1010.4
20260505033023 59 225 4.3 9.6 0.00 0.00 0.00 55 1010.5
20260505032520 59 12 2.6 3.5 0.00 0.00 0.00 54 1010.6
20260505032017 59 14 1.7 3.5 0.00 0.00 0.00 56 1010.6
20260505031514 59 64 2.6 3.5 0.00 0.00 0.00 55 1010.4
20260505031010 59 106 2.6 5.2 0.00 0.00 0.00 54 1010.6
20260505030507 59 134 1.7 5.2 0.00 0.00 0.00 57 1010.6
20260505030003 58 50 0.0 8.7 0.00 0.00 0.00 55 1010.7
20260505025459 58 43 1.7 2.6 0.00 0.00 0.00 57 1010.7
20260505024958 58 111 1.7 3.5 0.00 0.00 0.00 57 1010.4
20260505024454 58 68 1.7 2.6 0.00 0.00 0.00 58 1010.6
20260505023952 58 166 0.9 4.3 0.00 0.00 0.00 57 1010.5
20260505023449 58 72 1.7 5.2 0.00 0.00 0.00 57 1010.7
20260505022946 58 134 0.0 2.6 0.00 0.00 0.00 58 1010.6
20260505022444 59 104 1.7 3.5 0.00 0.00 0.00 56 1011.0
20260505021941 59 85 2.6 3.5 0.00 0.00 0.00 54 1010.6
20260505021437 60 101 1.7 3.5 0.00 0.00 0.00 53 1010.7
20260505020933 60 28 1.7 3.5 0.00 0.00 0.00 51 1010.5
20260505020428 60 21 1.7 2.6 0.00 0.00 0.00 51 1010.7
20260505015925 62 289 0.0 3.5 0.00 0.00 0.00 49 1010.9
20260505015423 62 108 1.7 4.3 0.00 0.00 0.00 50 1011.0
20260505014920 62 352 0.0 3.5 0.00 0.00 0.00 49 1010.7
20260505014416 62 111 0.0 3.5 0.00 0.00 0.00 49 1010.7
20260505013914 62 8 2.6 2.6 0.00 0.00 0.00 48 1010.6
20260505013410 62 44 4.3 5.2 0.00 0.00 0.00 48 1010.7
20260505012909 62 302 1.7 3.5 0.00 0.00 0.00 49 1010.7
20260505012406 62 3 1.7 2.6 0.00 0.00 0.00 49 1010.6
20260505011902 62 229 2.6 4.3 0.00 0.00 0.00 47 1010.4
20260505011359 63 309 0.0 2.6 0.00 0.00 0.00 47 1010.5
20260505010855 63 159 0.0 4.3 0.00 0.00 0.00 47 1010.5
20260505010351 63 23 2.6 4.3 0.00 0.00 0.00 47 1010.4
20260505005847 63 318 0.0 3.5 0.00 0.00 0.00 47 1010.3
20260505005344 63 16 1.7 2.6 0.00 0.00 0.00 48 1010.2
20260505004842 63 22 0.9 3.5 0.00 0.00 0.00 47 1010.2
20260505004338 63 173 2.6 8.7 0.00 0.00 0.00 46 1010.1
20260505003836 63 12 4.3 4.3 0.00 0.00 0.00 47 1010.2
20260505003333 64 254 2.6 2.6 0.00 0.00 0.00 46 1010.3
20260505002828 64 345 1.7 5.2 0.00 0.00 0.00 47 1010.2
20260505002326 64 323 0.9 3.5 0.00 0.00 0.00 46 1010.0
20260505001824 64 32 3.5 4.3 0.00 0.00 0.00 45 1009.8
20260505001320 64 241 0.0 4.3 0.00 0.00 0.00 46 1009.8
20260505000818 64 111 1.7 5.2 0.00 0.00 0.00 44 1009.9
20260505000316 64 29 2.6 3.5 0.00 0.00 0.00 45 1009.7
20260504235812 65 44 0.0 4.3 0.00 0.00 0.00 44 1009.7
20260504235309 65 125 0.9 4.3 0.00 0.00 0.00 44 1009.6
20260504234806 65 35 1.7 2.6 0.00 0.00 0.00 43 1009.6
20260504234304 66 298 1.7 5.2 0.00 0.00 0.00 42 1009.6
20260504233800 66 111 2.6 4.3 0.00 0.00 0.00 43 1009.5
20260504233255 66 2 0.9 3.5 0.00 0.00 0.00 41 1009.3
20260504232752 66 21 2.6 3.5 0.00 0.00 0.00 41 1009.5
20260504232249 67 328 2.6 2.6 0.00 0.00 0.00 41 1009.4
20260504231746 68 312 0.0 2.6 0.00 0.00 0.00 40 1009.3
20260504231243 68 186 0.0 4.3 0.00 0.00 0.00 39 1009.0
20260504230738 68 274 4.3 7.8 0.00 0.00 0.00 39 1009.1
20260504230237 68 126 0.9 4.3 0.00 0.00 0.00 38 1009.0
20260504225736 68 169 1.7 6.1 0.00 0.00 0.00 38 1009.1
20260504225231 68 347 0.0 4.3 0.00 0.00 0.00 39 1009.1
20260504224729 68 339 2.6 7.0 0.00 0.00 0.00 39 1008.8